�������r�C�����j�^�v���󋵏��
Date,Time,5�C6���@���p�r�C��,����,����(m/s)
2023/05/01,00:00,3.5,���k��,5.9
2023/05/01,00:10,3.7,���k��,4.2
2023/05/01,00:20,3.8,���k��,4.6
2023/05/01,00:30,3.7,���k��,3.5
2023/05/01,00:40,3.7,���k��,3.2
2023/05/01,00:50,3.7,���k��,3.2
2023/05/01,01:00,3.6,�k��,2.3
2023/05/01,01:10,3.8,�k��,2.5
2023/05/01,01:20,3.6,���k��,1.7
2023/05/01,01:30,3.8,�k��,1.4
2023/05/01,01:40,3.6,�k��,1.5
2023/05/01,01:50,3.8,���k��,1.2
2023/05/01,02:00,3.7,���k��,0.9
2023/05/01,02:10,3.7,�k�k��,0.6
2023/05/01,02:20,3.7,�k�k��,0.6
2023/05/01,02:30,3.7,�k�k��,1.1
2023/05/01,02:40,3.6,�k��,0.9
2023/05/01,02:50,3.6,�k��,1.4
2023/05/01,03:00,3.7,�k��,2.3
2023/05/01,03:10,3.6,�k��,2.9
2023/05/01,03:20,3.8,�k��,3.5
2023/05/01,03:30,3.7,���k��,2.5
2023/05/01,03:40,3.9,���k��,3.8
2023/05/01,03:50,3.7,���k��,4.3
2023/05/01,04:00,3.5,���k��,3.9
2023/05/01,04:10,3.6,���k��,4.6
2023/05/01,04:20,3.7,���k��,3.2
2023/05/01,04:30,3.7,���k��,3.1
2023/05/01,04:40,3.6,���k��,4.0
2023/05/01,04:50,3.6,��,3.7
2023/05/01,05:00,3.6,��,3.9
2023/05/01,05:10,3.9,���k��,4.5
2023/05/01,05:20,3.6,���k��,4.4
2023/05/01,05:30,3.5,���k��,3.5
2023/05/01,05:40,3.7,���k��,4.7
2023/05/01,05:50,3.7,��,4.3
2023/05/01,06:00,3.7,��,6.4
2023/05/01,06:10,3.7,��,7.0
2023/05/01,06:20,3.7,���k��,6.2
2023/05/01,06:30,3.5,���k��,6.6
2023/05/01,06:40,3.7,���k��,4.5
2023/05/01,06:50,3.5,���k��,5.2
2023/05/01,07:00,3.6,���k��,5.8
2023/05/01,07:10,3.6,���k��,5.0
2023/05/01,07:20,3.7,���k��,4.6
2023/05/01,07:30,3.5,�k�k��,3.7
2023/05/01,07:40,3.7,�k��,3.8
2023/05/01,07:50,3.5,���k��,3.5
2023/05/01,08:00,3.6,�k��,3.2
2023/05/01,08:10,3.7,�k��,3.2
2023/05/01,08:20,3.7,�k��,4.9
2023/05/01,08:30,3.7,�k��,4.0
2023/05/01,08:40,3.7,�k�k��,4.4
2023/05/01,08:50,3.5,�k��,2.6
2023/05/01,09:00,3.7,�k��,3.0
2023/05/01,09:10,3.5,�k��,3.2
2023/05/01,09:20,3.6,���k��,3.4
2023/05/01,09:30,3.6,���k��,3.3
2023/05/01,09:40,3.8,���k��,3.5
2023/05/01,09:50,3.6,��,4.2
2023/05/01,10:00,3.7,���k��,4.1
2023/05/01,10:10,3.6,��,4.0
2023/05/01,10:20,3.4,�쓌,4.1
2023/05/01,10:30,3.5,��쓌,4.6
2023/05/01,10:40,3.8,��쓌,4.7
2023/05/01,10:50,3.7,��쓌,4.9
2023/05/01,11:00,3.7,��쓌,5.0
2023/05/01,11:10,3.7,��쓌,4.9
2023/05/01,11:20,3.6,��쓌,5.5
2023/05/01,11:30,3.7,��쓌,5.6
2023/05/01,11:40,3.7,��쓌,5.6
2023/05/01,11:50,3.6,��쓌,5.6
2023/05/01,12:00,3.7,��쓌,5.4
2023/05/01,12:10,3.7,��쓌,6.8
2023/05/01,12:20,3.5,��쓌,4.5
2023/05/01,12:30,3.6,��쓌,5.1
2023/05/01,12:40,3.6,��쓌,5.7
2023/05/01,12:50,3.7,��쓌,6.6
2023/05/01,13:00,3.7,��쓌,7.3
2023/05/01,13:10,3.6,��쓌,6.7
2023/05/01,13:20,3.6,��쓌,7.0
2023/05/01,13:30,3.8,��,7.0
2023/05/01,13:40,3.8,��쓌,8.0
2023/05/01,13:50,3.7,��쓌,8.7
2023/05/01,14:00,3.7,��쓌,6.7
2023/05/01,14:10,3.7,��쓌,7.0
2023/05/01,14:20,3.7,��쓌,7.8
2023/05/01,14:30,3.7,��쓌,8.3
2023/05/01,14:40,3.7,��쓌,8.3
2023/05/01,14:50,3.6,��쓌,9.1
2023/05/01,15:00,3.5,��쓌,7.5
2023/05/01,15:10,3.7,��쓌,7.5
2023/05/01,15:20,3.6,��쓌,8.7
2023/05/01,15:30,3.7,��,8.8
2023/05/01,15:40,3.7,��쓌,9.0
2023/05/01,15:50,3.6,��쓌,10.2
2023/05/01,16:00,3.8,��쓌,8.5
2023/05/01,16:10,3.6,��쓌,9.0
2023/05/01,16:20,3.6,��쓌,10.2
2023/05/01,16:30,3.8,��,8.8
2023/05/01,16:40,3.9,��쓌,11.0
2023/05/01,16:50,3.7,��쓌,11.0
2023/05/01,17:00,3.7,��쓌,11.3
2023/05/01,17:10,3.6,��쓌,10.7
2023/05/01,17:20,3.6,��쓌,11.1
2023/05/01,17:30,3.5,��쓌,9.6
2023/05/01,17:40,3.6,��,6.7
2023/05/01,17:50,3.8,��쐼,7.4
2023/05/01,18:00,3.6,��쐼,8.5
2023/05/01,18:10,3.6,�쐼,9.5
2023/05/01,18:20,3.7,�쐼,10.2
2023/05/01,18:30,3.7,�쐼,10.5
2023/05/01,18:40,3.6,�쐼,9.9
2023/05/01,18:50,3.6,�쐼,7.9
2023/05/01,19:00,3.6,�쐼,5.4
2023/05/01,19:10,3.7,���쐼,3.9
2023/05/01,19:20,3.8,���쐼,5.6
2023/05/01,19:30,3.8,��,6.1
2023/05/01,19:40,3.7,��,6.1
2023/05/01,19:50,3.6,���k��,7.7
2023/05/01,20:00,3.6,���k��,8.9
2023/05/01,20:10,3.7,���k��,9.5
2023/05/01,20:20,3.7,��,8.1
2023/05/01,20:30,3.9,���k��,7.3
2023/05/01,20:40,3.6,���k��,5.7
2023/05/01,20:50,3.6,�k��,7.6
2023/05/01,21:00,3.6,���k��,6.9
2023/05/01,21:10,3.8,���k��,7.5
2023/05/01,21:20,3.7,���k��,6.1
2023/05/01,21:30,3.7,�k��,3.4
2023/05/01,21:40,3.8,�k��,5.8
2023/05/01,21:50,3.8,�k��,5.9
2023/05/01,22:00,3.8,�k��,4.7
2023/05/01,22:10,3.8,�k��,5.1
2023/05/01,22:20,3.7,�k��,6.1
2023/05/01,22:30,3.7,�k��,5.3
2023/05/01,22:40,3.8,���k��,3.7
2023/05/01,22:50,3.6,�k��,5.8
2023/05/01,23:00,3.8,�k��,5.1
2023/05/01,23:10,3.4,���k��,7.2
2023/05/01,23:20,3.7,���k��,10.5
2023/05/01,23:30,3.8,��,8.8
2023/05/01,23:40,3.6,��,5.2
2023/05/01,23:50,3.6,���k��,6.6
